TimePST,TemperatureF,Dew PointF,Humidity,Sea Level PressureIn,VisibilityMPH,Wind Direction,Wind SpeedMPH,Gust SpeedMPH,PrecipitationIn,Events,Conditions,WindDirDegrees,DateUTC
12:53 AM,54.0,35.1,49,30.02,10.0,Calm,Calm,-,N/A,,Clear,0,2012-11-15 08:53:00
1:53 AM,54.0,33.1,45,30.02,10.0,East,13.8,-,N/A,,Clear,90,2012-11-15 09:53:00
2:53 AM,55.0,32.0,42,30.00,10.0,East,16.1,-,N/A,,Clear,80,2012-11-15 10:53:00
3:53 AM,55.9,30.9,39,29.99,10.0,East,11.5,-,N/A,,Clear,100,2012-11-15 11:53:00
4:53 AM,55.0,30.9,40,30.00,10.0,East,8.1,-,N/A,,Clear,100,2012-11-15 12:53:00
5:53 AM,53.1,30.9,43,30.01,10.0,East,10.4,-,N/A,,Clear,90,2012-11-15 13:53:00
6:53 AM,53.1,30.9,43,30.02,10.0,East,10.4,-,N/A,,Clear,100,2012-11-15 14:53:00
7:53 AM,55.0,30.0,38,30.03,10.0,East,15.0,-,N/A,,Clear,100,2012-11-15 15:53:00
8:53 AM,59.0,30.0,33,30.04,10.0,East,13.8,-,N/A,,Clear,100,2012-11-15 16:53:00
9:53 AM,63.0,30.9,30,30.04,10.0,ESE,9.2,-,N/A,,Clear,110,2012-11-15 17:53:00
10:53 AM,64.9,33.1,31,30.04,10.0,Calm,Calm,-,N/A,,Clear,0,2012-11-15 18:53:00
11:53 AM,70.0,36.0,29,30.01,10.0,NW,8.1,-,N/A,,Clear,310,2012-11-15 19:53:00
12:53 PM,73.0,35.1,25,30.00,10.0,West,8.1,-,N/A,,Clear,280,2012-11-15 20:53:00
1:53 PM,71.1,43.0,36,29.99,10.0,West,5.8,-,N/A,,Clear,270,2012-11-15 21:53:00
2:53 PM,70.0,48.0,46,29.98,10.0,NNW,5.8,-,N/A,,Clear,340,2012-11-15 22:53:00
3:21 PM,73.4,28.4,19,29.94,7.0,ESE,21.9,27.6,N/A,,Clear,120,2012-11-15 23:21:00
3:53 PM,71.1,34.0,26,29.99,10.0,SE,17.3,-,N/A,,Clear,130,2012-11-15 23:53:00
4:53 PM,64.9,46.0,50,30.00,10.0,Variable,4.6,-,N/A,,Clear,0,2012-11-16 00:53:00
5:53 PM,63.0,46.9,56,30.02,10.0,South,3.5,-,N/A,,Clear,190,2012-11-16 01:53:00
6:53 PM,63.0,46.9,56,30.03,10.0,Calm,Calm,-,N/A,,Clear,0,2012-11-16 02:53:00
7:53 PM,62.1,46.9,58,30.02,10.0,SSW,5.8,-,N/A,,Clear,210,2012-11-16 03:53:00
8:53 PM,60.1,46.9,62,30.02,10.0,West,4.6,-,N/A,,Clear,270,2012-11-16 04:53:00
9:53 PM,59.0,50.0,72,30.04,9.0,SW,3.5,-,N/A,,Clear,220,2012-11-16 05:53:00
10:53 PM,59.0,50.0,72,30.03,8.0,Calm,Calm,-,0.00,Rain,Light Rain,0,2012-11-16 06:53:00
11:53 PM,61.0,48.0,62,30.03,10.0,Calm,Calm,-,0.00,,Mostly Cloudy,0,2012-11-16 07:53:00